Find OneWeb SL0696

NORAD ID: 56723 Int'l Des: 2023-068 Owner: ONEWEBN Country: UK Constellation: oneweb operational
LEOCIRCULARPOLARONEWEB_TYPE

リアルタイム位置

3D地球を読み込み中...

OneWeb SL0696について

説明を読み込み中...

次回通過

Passes for default location (London). Set your location on the main map for personalized predictions.

高度履歴

Loading altitude history...

軌道要素

1 56723U 23068P 26104.89296956 .00000008 00000-0 -12499-4 0 9997
2 56723 87.8932 271.8509 0002192 90.4392 269.6989 13.15548091141041
Epoch: Apr 14, 2026 • Age: 7 hours

現在のステータス

高度 1204.1 km
速度 7.25 km/s
衛星直下点 25.21°N, 3.49°W
打ち上げ日 May 20, 2023
運用期間 2.9 years
タイプ internet

技術仕様

分類 Payload
質量 148.00 kg
乾燥質量 140.00 kg
総質量 148.00 kg
長さ 1.30 m
直径 1.00 m
スパン 5.00 m
形状 Trapezoid+2 pan
製造者 ONEWUS
バスタイプ ARROW
フェーズステータス In Orbit
所有者/国 ONEWEBN/UK

Most Searched